Torna al catalogo

COSMOS 1641

AttivoMilitareLEO
NORAD 15623·PAYLOAD·🇷🇺 Russia

Lanciato Mar 21, 1985 da Plesetsk Cosmodrome

Loading…

Prossimi Passaggi (prossime 24 ore)

TLE

AggiornatoSource: Space-Track

Epoca: Sep 14, 2026, 22:54 UTC

1 15623U 85023G   26257.95424672 -.00000027  00000-0 -72157-4 0  9993
2 15623  74.0527  76.1623 0043311 142.2628  11.8159 12.54564637899987

Traccia COSMOS 1641 in tempo reale con AllMySat

Download on the App Store